Time,TemperatureF,DewpointF,PressureIn,WindDirection,WindDirectionDegrees,WindSpeedMPH,WindSpeedGustMPH,Humidity,HourlyPrecipIn,Conditions,Clouds,dailyrainin,SoftwareType,DateUTC
2013-01-09 00:01:00,48.0,48.0,29.99,South,191,16.0,20.0,100,0.00,,,0.60,,2013-01-09 08:01:00,
2013-01-09 00:11:00,48.0,48.0,29.99,South,191,16.0,20.0,100,0.00,,,0.60,,2013-01-09 08:11:00,
2013-01-09 00:22:00,48.0,48.0,29.99,West,274,14.0,24.0,100,0.00,,,0.60,,2013-01-09 08:22:00,
2013-01-09 00:32:00,48.0,48.0,29.98,SSW,207,14.0,24.0,100,0.00,,,0.60,,2013-01-09 08:32:00,
2013-01-09 00:42:00,48.0,48.0,29.98,SSW,207,14.0,24.0,100,0.00,,,0.60,,2013-01-09 08:42:00,
2013-01-09 00:53:00,48.0,48.0,29.98,SSW,197,19.0,28.0,100,0.00,,,0.60,,2013-01-09 08:53:00,
2013-01-09 01:02:00,48.0,48.0,29.96,SSW,198,12.0,28.0,100,0.00,,,0.60,,2013-01-09 09:02:00,
2013-01-09 01:11:00,48.0,48.0,29.96,SSW,198,12.0,28.0,100,0.00,,,0.60,,2013-01-09 09:11:00,
2013-01-09 01:22:00,48.0,48.0,29.97,SSW,211,19.0,25.0,100,0.00,,,0.60,,2013-01-09 09:22:00,
2013-01-09 01:32:00,48.0,48.0,29.96,South,191,19.0,25.0,100,0.00,,,0.58,,2013-01-09 09:32:00,
2013-01-09 01:42:00,48.0,48.0,29.96,South,191,19.0,25.0,100,0.00,,,0.58,,2013-01-09 09:42:00,
2013-01-09 01:53:00,48.0,48.0,29.96,SSW,204,13.0,25.0,100,0.00,,,0.58,,2013-01-09 09:53:00,
2013-01-09 02:01:00,49.0,49.0,29.95,SSW,207,17.0,26.0,100,0.00,,,0.58,,2013-01-09 10:01:00,
2013-01-09 02:11:00,49.0,49.0,29.95,SSW,207,17.0,26.0,100,0.00,,,0.58,,2013-01-09 10:11:00,
2013-01-09 02:22:00,49.0,49.0,29.93,SSW,208,14.0,28.0,100,0.00,,,0.58,,2013-01-09 10:22:00,
2013-01-09 02:32:00,49.0,49.0,29.93,WSW,242,21.0,26.0,100,0.00,,,0.54,,2013-01-09 10:32:00,
2013-01-09 02:42:00,49.0,49.0,29.93,WSW,242,21.0,26.0,100,0.00,,,0.54,,2013-01-09 10:42:00,
2013-01-09 02:52:00,49.0,49.0,29.91,South,170,5.0,26.0,100,0.00,,,0.54,,2013-01-09 10:52:00,
2013-01-09 03:02:00,49.0,49.0,29.91,SW,235,13.0,17.0,100,0.00,,,0.54,,2013-01-09 11:02:00,
2013-01-09 03:11:00,49.0,49.0,29.91,SW,235,13.0,17.0,100,0.00,,,0.54,,2013-01-09 11:11:00,
2013-01-09 03:22:00,49.0,49.0,29.90,South,173,14.0,28.0,100,0.00,,,0.54,,2013-01-09 11:22:00,
2013-01-09 03:32:00,49.0,49.0,29.88,SSW,211,19.0,29.0,100,0.00,,,0.50,,2013-01-09 11:32:00,
2013-01-09 03:42:00,49.0,49.0,29.88,SSW,211,19.0,29.0,100,0.00,,,0.50,,2013-01-09 11:42:00,
2013-01-09 03:53:00,49.0,49.0,29.87,SW,225,14.0,21.0,100,0.00,,,0.50,,2013-01-09 11:53:00,
2013-01-09 04:02:00,49.0,49.0,29.86,South,182,21.0,27.0,100,0.00,,,0.50,,2013-01-09 12:02:00,
2013-01-09 04:12:00,49.0,49.0,29.86,South,182,21.0,27.0,100,0.00,,,0.50,,2013-01-09 12:12:00,
2013-01-09 04:22:00,49.0,49.0,29.84,SSW,197,18.0,28.0,100,0.00,,,0.50,,2013-01-09 12:22:00,
2013-01-09 04:32:00,49.0,49.0,29.82,South,180,19.0,30.0,100,0.00,,,0.44,,2013-01-09 12:32:00,
2013-01-09 04:42:00,49.0,49.0,29.82,South,180,19.0,30.0,100,0.00,,,0.44,,2013-01-09 12:42:00,
2013-01-09 04:52:00,48.0,48.0,29.81,SW,218,23.0,36.0,100,0.00,,,0.44,,2013-01-09 12:52:00,
2013-01-09 05:02:00,47.0,47.0,29.85,SW,221,11.0,28.0,100,0.05,,,0.44,,2013-01-09 13:02:00,
2013-01-09 05:11:00,47.0,47.0,29.85,SW,221,11.0,28.0,100,0.05,,,0.44,,2013-01-09 13:11:00,
2013-01-09 05:22:00,44.0,44.0,29.86,NW,322,5.0,14.0,100,0.23,,,0.45,,2013-01-09 13:22:00,
2013-01-09 05:32:00,44.0,44.0,29.87,NE,42,8.0,11.0,100,0.30,,,0.63,,2013-01-09 13:32:00,
2013-01-09 05:42:00,44.0,44.0,29.87,NE,42,8.0,11.0,100,0.30,,,0.63,,2013-01-09 13:42:00,
2013-01-09 05:52:00,43.0,43.0,29.87,North,351,8.0,11.0,100,0.31,,,0.63,,2013-01-09 13:52:00,
2013-01-09 06:02:00,43.0,43.0,29.87,NW,326,5.0,10.0,100,0.33,,,0.63,,2013-01-09 14:02:00,
2013-01-09 06:12:00,43.0,43.0,29.87,NW,310,4.0,8.0,100,0.13,,,0.63,,2013-01-09 14:12:00,
2013-01-09 06:22:00,43.0,43.0,29.87,NW,310,4.0,8.0,100,0.13,,,0.63,,2013-01-09 14:22:00,
2013-01-09 06:32:00,43.0,43.0,29.88,North,357,4.0,8.0,100,0.07,,,0.71,,2013-01-09 14:32:00,
2013-01-09 06:43:00,43.0,43.0,29.88,North,357,4.0,8.0,100,0.07,,,0.71,,2013-01-09 14:43:00,
2013-01-09 06:53:00,43.0,43.0,29.88,North,0,0.0,8.0,100,0.07,,,0.71,,2013-01-09 14:53:00,
2013-01-09 07:02:00,42.0,42.0,29.89,North,0,0.0,11.0,100,0.05,,,0.71,,2013-01-09 15:02:00,
2013-01-09 07:12:00,42.0,42.0,29.89,North,0,0.0,11.0,100,0.05,,,0.71,,2013-01-09 15:12:00,
2013-01-09 07:22:00,42.0,42.0,29.91,West,280,2.0,8.0,100,0.05,,,0.71,,2013-01-09 15:22:00,
2013-01-09 07:33:00,42.0,42.0,29.91,WNW,298,1.0,8.0,100,0.05,,,0.74,,2013-01-09 15:33:00,
2013-01-09 07:42:00,42.0,42.0,29.91,WNW,298,1.0,8.0,100,0.05,,,0.74,,2013-01-09 15:42:00,
2013-01-09 07:53:00,41.0,41.0,29.92,WNW,303,1.0,8.0,100,0.05,,,0.74,,2013-01-09 15:53:00,
2013-01-09 08:02:00,41.0,41.0,29.92,WSW,257,2.0,4.0,100,0.03,,,0.74,,2013-01-09 16:02:00,
2013-01-09 08:12:00,41.0,41.0,29.92,WSW,257,2.0,4.0,100,0.03,,,0.74,,2013-01-09 16:12:00,
2013-01-09 08:22:00,42.0,42.0,29.93,WSW,257,3.0,10.0,100,0.03,,,0.74,,2013-01-09 16:22:00,
2013-01-09 08:32:00,43.0,43.0,29.93,West,267,4.0,6.0,100,0.05,,,0.77,,2013-01-09 16:32:00,
2013-01-09 08:42:00,43.0,43.0,29.93,West,267,4.0,6.0,100,0.05,,,0.77,,2013-01-09 16:42:00,
2013-01-09 08:53:00,43.0,43.0,29.93,NW,309,6.0,10.0,100,0.04,,,0.77,,2013-01-09 16:53:00,
2013-01-09 09:02:00,43.0,43.0,29.95,NW,316,8.0,13.0,100,0.08,,,0.77,,2013-01-09 17:02:00,
2013-01-09 09:11:00,43.0,43.0,29.95,NW,316,8.0,13.0,100,0.08,,,0.77,,2013-01-09 17:11:00,
2013-01-09 09:22:00,42.0,42.0,29.96,WNW,303,7.0,17.0,100,0.09,,,0.77,,2013-01-09 17:22:00,
2013-01-09 09:32:00,41.0,41.0,29.97,NNW,338,6.0,14.0,100,0.08,,,0.87,,2013-01-09 17:32:00,
2013-01-09 09:42:00,41.0,41.0,29.97,NNW,338,6.0,14.0,100,0.08,,,0.87,,2013-01-09 17:42:00,
2013-01-09 09:53:00,42.0,42.0,29.97,NW,317,5.0,14.0,100,0.08,,,0.87,,2013-01-09 17:53:00,
2013-01-09 10:02:00,42.0,42.0,29.98,NNE,12,9.0,13.0,100,0.07,,,0.87,,2013-01-09 18:02:00,
2013-01-09 10:12:00,42.0,42.0,29.98,NNE,12,9.0,13.0,100,0.07,,,0.87,,2013-01-09 18:12:00,
2013-01-09 10:23:00,42.0,42.0,29.98,North,0,0.0,14.0,100,0.03,,,0.87,,2013-01-09 18:23:00,
2013-01-09 10:32:00,42.0,42.0,29.99,WNW,284,3.0,11.0,100,0.01,,,0.87,,2013-01-09 18:32:00,
2013-01-09 10:42:00,42.0,42.0,29.99,WNW,284,3.0,11.0,100,0.01,,,0.87,,2013-01-09 18:42:00,
2013-01-09 10:53:00,42.0,42.0,29.99,NNW,341,9.0,15.0,100,0.01,,,0.87,,2013-01-09 18:53:00,
2013-01-09 11:02:00,42.0,42.0,29.99,WNW,294,2.0,15.0,100,0.02,,,0.87,,2013-01-09 19:02:00,
2013-01-09 11:12:00,42.0,42.0,29.99,WNW,294,2.0,15.0,100,0.02,,,0.87,,2013-01-09 19:12:00,
2013-01-09 11:22:00,43.0,43.0,30.00,NW,323,2.0,9.0,100,0.01,,,0.87,,2013-01-09 19:22:00,
2013-01-09 11:32:00,43.0,43.0,29.99,North,0,0.0,0.0,100,0.01,,,0.85,,2013-01-09 19:32:00,
2013-01-09 11:42:00,43.0,43.0,29.99,North,0,0.0,0.0,100,0.01,,,0.85,,2013-01-09 19:42:00,
2013-01-09 11:52:00,44.0,44.0,29.99,WNW,295,4.0,5.0,100,0.01,,,0.85,,2013-01-09 19:52:00,
2013-01-09 12:01:00,41.0,41.0,29.99,WNW,291,6.0,19.0,100,0.07,,,0.85,,2013-01-09 20:01:00,
2013-01-09 12:11:00,41.0,41.0,29.99,WNW,291,6.0,19.0,100,0.07,,,0.85,,2013-01-09 20:11:00,
2013-01-09 12:22:00,41.0,41.0,29.99,SW,221,1.0,8.0,100,0.07,,,0.85,,2013-01-09 20:22:00,
2013-01-09 12:32:00,42.0,42.0,29.99,WNW,296,9.0,13.0,100,0.08,,,0.90,,2013-01-09 20:32:00,
2013-01-09 12:42:00,42.0,42.0,29.99,WNW,296,9.0,13.0,100,0.08,,,0.90,,2013-01-09 20:42:00,
2013-01-09 12:53:00,43.0,43.0,29.99,West,280,12.0,16.0,100,0.08,,,0.90,,2013-01-09 20:53:00,
2013-01-09 13:02:00,45.0,45.0,29.99,West,280,7.0,16.0,100,0.02,,,0.90,,2013-01-09 21:02:00,
2013-01-09 13:12:00,45.0,45.0,29.99,West,280,7.0,16.0,100,0.02,,,0.90,,2013-01-09 21:12:00,
2013-01-09 13:22:00,44.0,44.0,29.99,NNW,327,11.0,18.0,100,0.02,,,0.90,,2013-01-09 21:22:00,
2013-01-09 13:32:00,44.0,43.0,29.99,NW,323,8.0,18.0,97,0.01,,,0.87,,2013-01-09 21:32:00,
2013-01-09 13:42:00,44.0,43.0,29.99,NW,323,8.0,18.0,97,0.01,,,0.87,,2013-01-09 21:42:00,
2013-01-09 13:53:00,46.0,44.0,29.99,NNW,336,3.0,13.0,92,0.01,,,0.87,,2013-01-09 21:53:00,
2013-01-09 14:02:00,45.0,42.0,29.98,WNW,302,0.0,8.0,88,0.00,,,0.87,,2013-01-09 22:02:00,
2013-01-09 14:12:00,45.0,42.0,29.98,WNW,302,0.0,8.0,88,0.00,,,0.87,,2013-01-09 22:12:00,
2013-01-09 14:22:00,44.0,41.0,29.99,NW,312,9.0,9.0,88,0.00,,,0.87,,2013-01-09 22:22:00,
2013-01-09 14:32:00,45.0,41.0,29.99,NNW,343,7.0,14.0,87,0.00,,,0.85,,2013-01-09 22:32:00,
2013-01-09 14:42:00,45.0,41.0,29.99,NNW,343,7.0,14.0,87,0.00,,,0.85,,2013-01-09 22:42:00,
2013-01-09 14:52:00,45.0,41.0,30.00,West,264,7.0,14.0,85,0.00,,,0.85,,2013-01-09 22:52:00,
2013-01-09 15:02:00,45.0,41.0,30.00,West,266,8.0,12.0,85,0.00,,,0.85,,2013-01-09 23:02:00,
2013-01-09 15:12:00,46.0,41.0,30.00,West,274,6.0,12.0,83,0.00,,,0.85,,2013-01-09 23:12:00,
2013-01-09 15:22:00,46.0,41.0,30.00,West,274,6.0,12.0,83,0.00,,,0.85,,2013-01-09 23:22:00,
2013-01-09 15:32:00,45.0,39.0,30.00,West,270,5.0,13.0,80,0.00,,,0.84,,2013-01-09 23:32:00,
2013-01-09 15:42:00,45.0,39.0,30.00,West,270,5.0,13.0,80,0.00,,,0.84,,2013-01-09 23:42:00,
2013-01-09 15:52:00,43.0,39.0,30.01,WNW,284,2.0,13.0,85,0.01,,,0.87,,2013-01-09 23:52:00,
2013-01-09 16:02:00,42.0,39.0,30.01,NNW,331,6.0,9.0,89,0.03,,,0.87,,2013-01-10 00:02:00,
2013-01-09 16:12:00,42.0,39.0,30.01,NNW,331,6.0,9.0,89,0.03,,,0.87,,2013-01-10 00:12:00,
2013-01-09 16:22:00,43.0,40.0,30.01,WNW,303,6.0,10.0,89,0.03,,,0.87,,2013-01-10 00:22:00,
2013-01-09 16:32:00,43.0,40.0,30.01,NW,317,8.0,10.0,89,0.04,,,0.87,,2013-01-10 00:32:00,
2013-01-09 16:42:00,43.0,40.0,30.01,NW,317,8.0,10.0,89,0.04,,,0.87,,2013-01-10 00:42:00,
2013-01-09 16:53:00,43.0,39.0,30.01,WNW,285,9.0,14.0,87,0.03,,,0.87,,2013-01-10 00:53:00,
2013-01-09 17:02:00,43.0,39.0,30.01,West,260,3.0,14.0,86,0.01,,,0.87,,2013-01-10 01:02:00,
2013-01-09 17:11:00,43.0,39.0,30.01,West,260,3.0,14.0,86,0.01,,,0.87,,2013-01-10 01:11:00,
2013-01-09 17:22:00,43.0,39.0,30.01,WSW,254,8.0,10.0,86,0.01,,,0.87,,2013-01-10 01:22:00,
2013-01-09 17:32:00,43.0,39.0,30.01,WNW,296,3.0,10.0,87,0.00,,,0.88,,2013-01-10 01:32:00,
2013-01-09 17:42:00,43.0,39.0,30.01,WNW,296,3.0,10.0,87,0.00,,,0.88,,2013-01-10 01:42:00,
2013-01-09 17:52:00,43.0,39.0,30.01,WNW,287,4.0,10.0,87,0.00,,,0.88,,2013-01-10 01:52:00,
2013-01-09 18:02:00,43.0,40.0,30.01,NW,317,6.0,8.0,88,0.00,,,0.88,,2013-01-10 02:02:00,
2013-01-09 18:12:00,43.0,40.0,30.01,NW,317,6.0,8.0,88,0.00,,,0.88,,2013-01-10 02:12:00,
2013-01-09 18:22:00,43.0,39.0,30.01,West,263,5.0,12.0,86,0.00,,,0.88,,2013-01-10 02:22:00,
2013-01-09 18:32:00,42.0,38.0,30.01,West,266,5.0,10.0,84,0.00,,,0.87,,2013-01-10 02:32:00,
2013-01-09 18:42:00,42.0,38.0,30.01,West,266,5.0,10.0,84,0.00,,,0.87,,2013-01-10 02:42:00,
2013-01-09 18:52:00,42.0,38.0,30.01,West,266,5.0,10.0,84,0.00,,,0.87,,2013-01-10 02:52:00,
2013-01-09 19:02:00,42.0,38.0,30.02,WSW,240,10.0,16.0,85,0.00,,,0.87,,2013-01-10 03:02:00,
2013-01-09 19:11:00,42.0,38.0,30.02,WSW,240,10.0,16.0,85,0.00,,,0.87,,2013-01-10 03:11:00,
2013-01-09 19:22:00,41.0,37.0,30.03,West,268,3.0,9.0,87,0.00,,,0.87,,2013-01-10 03:22:00,
2013-01-09 19:32:00,40.0,37.0,30.03,North,0,0.0,4.0,90,0.02,,,0.87,,2013-01-10 03:32:00,
2013-01-09 19:42:00,40.0,37.0,30.03,North,0,0.0,4.0,90,0.02,,,0.87,,2013-01-10 03:42:00,
2013-01-09 19:52:00,39.0,37.0,30.03,North,0,0.0,5.0,92,0.02,,,0.87,,2013-01-10 03:52:00,
2013-01-09 20:02:00,39.0,38.0,30.03,North,0,0.0,0.0,95,0.02,,,0.87,,2013-01-10 04:02:00,
2013-01-09 20:11:00,39.0,38.0,30.03,North,0,0.0,0.0,95,0.02,,,0.87,,2013-01-10 04:11:00,
2013-01-09 20:22:00,39.0,38.0,30.03,North,0,0.0,0.0,96,0.02,,,0.87,,2013-01-10 04:22:00,
2013-01-09 20:32:00,38.0,37.0,30.03,North,0,0.0,4.0,98,0.00,,,0.87,,2013-01-10 04:32:00,
2013-01-09 20:42:00,38.0,37.0,30.03,North,0,0.0,4.0,98,0.00,,,0.87,,2013-01-10 04:42:00,
2013-01-09 20:52:00,38.0,37.0,30.03,North,0,0.0,0.0,98,0.00,,,0.87,,2013-01-10 04:52:00,
2013-01-09 21:12:00,38.0,38.0,30.03,North,0,0.0,5.0,99,0.00,,,0.87,,2013-01-10 05:12:00,
2013-01-09 21:22:00,38.0,38.0,30.03,North,0,0.0,0.0,100,0.00,,,0.87,,2013-01-10 05:22:00,
2013-01-09 21:32:00,39.0,39.0,30.04,WNW,291,4.0,14.0,100,0.02,,,0.85,,2013-01-10 05:32:00,
2013-01-09 21:42:00,39.0,39.0,30.04,WNW,291,4.0,14.0,100,0.02,,,0.85,,2013-01-10 05:42:00,
2013-01-09 21:52:00,38.0,38.0,30.04,North,0,0.0,4.0,100,0.02,,,0.85,,2013-01-10 05:52:00,
2013-01-09 22:02:00,38.0,38.0,30.04,North,0,0.0,4.0,100,0.03,,,0.85,,2013-01-10 06:02:00,
2013-01-09 22:11:00,38.0,38.0,30.04,North,0,0.0,4.0,100,0.03,,,0.85,,2013-01-10 06:11:00,
2013-01-09 22:22:00,37.0,37.0,30.04,North,0,0.0,5.0,100,0.03,,,0.85,,2013-01-10 06:22:00,
2013-01-09 22:32:00,37.0,37.0,30.05,North,0,0.0,5.0,100,0.01,,,0.83,,2013-01-10 06:32:00,
2013-01-09 22:42:00,37.0,37.0,30.05,North,0,0.0,5.0,100,0.01,,,0.83,,2013-01-10 06:42:00,
2013-01-09 22:52:00,37.0,37.0,30.04,North,0,0.0,0.0,100,0.01,,,0.83,,2013-01-10 06:52:00,
2013-01-09 23:01:00,37.0,37.0,30.05,ENE,58,5.0,5.0,100,0.01,,,0.83,,2013-01-10 07:01:00,
2013-01-09 23:11:00,37.0,37.0,30.05,ENE,58,5.0,5.0,100,0.01,,,0.83,,2013-01-10 07:11:00,
2013-01-09 23:22:00,36.0,36.0,30.05,ENE,72,2.0,5.0,100,0.02,,,0.83,,2013-01-10 07:22:00,
2013-01-09 23:32:00,36.0,36.0,30.05,SE,127,3.0,8.0,100,0.02,,,0.77,,2013-01-10 07:32:00,
2013-01-09 23:42:00,36.0,36.0,30.05,SE,127,3.0,8.0,100,0.02,,,0.77,,2013-01-10 07:42:00,
2013-01-09 23:52:00,36.0,36.0,30.05,North,0,0.0,0.0,100,0.02,,,0.77,,2013-01-10 07:52:00,